Regional Weather Roundup
Issued by NWS Northern Indiana

Home | Current Version | Previous Version | Text Only | Print | Product List | Glossary On
Versions: 1 2 3 4 5 6 7 8 9 10 11 12 13 14 15 16 17 18 19 20 21 22 23 24 25 26 27 28 29 30 31 32 33 34 35 36 37 38 39 40 41 42 43 44 45 46 47 48 49 50
000
ASUS43 KIWX 261910
RWRIWX

KIWX WEATHER ROUNDUP
NATIONAL WEATHER SERVICE NORTHERN INDIANA
300 PM EDT FRI MAY 26 2017

NOTE: "FAIR" INDICATES FEW OR NO CLOUDS BELOW 12,000 FEET WITH NO
SIGNIFICANT WEATHER AND/OR OBSTRUCTIONS TO VISIBILITY.

* THESE STATIONS ARE NOT UNDER NWS QUALITY CONTROL. THEY ALSO MAY NOT
  REPORT WEATHER SUCH AS PRECIPITATION OR FOG.

INZ001>027-262000-
NORTHERN INDIANA

CITY           SKY/WX    TMP DP  RH WIND       PRES   REMARKS
GARY*          PTSUNNY   68  52  56 E10       29.84S
VALPARAISO     CLOUDY    74  58  57 E9        29.84R
MICHIGAN CITY* CLOUDY    70  54  56 CALM      29.85R
LAPORTE*       MOSUNNY   71  55  56 SE3       29.86R
KNOX*          MOSUNNY   72  45  37 SE7       29.83S
SOUTH BEND     CLOUDY    69  53  56 CALM      29.86R
ELKHART*       LGT RAIN  68  50  52 CALM      29.85R
GOSHEN         LGT RAIN  69  52  54 S3        29.85R
MONTICELLO*    CLOUDY    72  58  61 S3        29.82F
LOGANSPORT*    CLOUDY    70  57  64 SE6       29.86S
ROCHESTER*     CLOUDY    73  55  53 SE7       29.85F
WARSAW*        MOSUNNY   68  54  60 CALM      29.86F
ANGOLA*        SUNNY     72  64  78 SW6       29.86R
FORT WAYNE     CLOUDY    71  54  54 W3        29.87R
HUNTINGTON*    CLOUDY   N/A N/A N/A CALM      29.86F
PERU/GRISSOM   CLOUDY    71  59  65 SE8       29.84S
MARION*        CLOUDY    70  57  64 S6        29.86F

$$
INZ028>050-262000-
CENTRAL INDIANA

CITY           SKY/WX    TMP DP  RH WIND       PRES   REMARKS
LAFAYETTE      MOSUNNY   76  59  55 S8        29.80F
KOKOMO*        CLOUDY    70  59  68 SE7       29.86F
MUNCIE*        CLOUDY    72  57  59 S8        29.86F
INDIANAPOLIS   MOSUNNY   76  59  55 SE13      29.82F

$$
MIZ043>046-050>051-056>058-064>065-071>073-077>080-262000-
SOUTHWEST LOWER MICHIGAN

CITY           SKY/WX    TMP DP  RH WIND       PRES   REMARKS
BATTLE CREEK   PTSUNNY   70  54  56 NE3       29.85F
BENTON HARBOR  CLOUDY    67  51  56 VRB3      29.85R
COLDWATER*     MOSUNNY   70  55  57 CALM      29.86R
HILLSDALE*     SUNNY     68  52  56 N8        29.85S
HOLLAND        CLOUDY    71  52  50 CALM      29.85S
GRAND RAPIDS   CLOUDY    69  54  58 E5        29.83F
KALAMAZOO      MOSUNNY   71  51  49 SW6       29.85R
STURGIS*       MOSUNNY   69  55  60 CALM      29.85R
THREE RIVERS*  FAIR      71  51  50 CALM      29.85R

$$
OHZ001>008-015>018-024>025-262000-
NORTHWEST OHIO

CITY           SKY/WX    TMP DP  RH WIND       PRES   REMARKS
WAUSEON*       FAIR      72  54  53 VRB7G13   29.85S
DEFIANCE       MOSUNNY   70  54  56 VRB6      29.86S
FINDLAY        SUNNY     71  53  52 NW8       29.86F
TOLEDO EXPRESS PTSUNNY   69  54  58 CALM      29.85F
TOLEDO METCALF PTSUNNY   69  54  58 VRB3      29.86F
LIMA           MOSUNNY   71  58  63 W7        29.88S

$$
AND FOR LAKE MICHIGAN COASTAL AND OPEN LAKE BUOY OBSERVATIONS

STATION/POSITION TEMP    WIND        PRES    VSBY  WAVE
                 AIR SEA DIR/SP/G                  HT/PER
                 (F)     (DEG/KT/KT) (MB)    (MI)  (FT/S)
CALUMET HARBOR    58      50/  4/  6 1010.2R
MICHIGAN CITY     57      40/  7/  9   N/A
BURNS HARBOR      59      70/ 13/ 14 1010.8S
SOUTH LAKE BUOY   48 47   50/  4/  4 1011.2          1
4 MI NW BRIDGMAN  56 56   20/  4/  6 1011.6          1/ 4
MICHIGAN CITY     54 53   50/  6/ 10   N/A           1/ 5

$$
&&




USA.gov is the U.S. government's official web portal to all federal, state and local government web resources and services.